This is the latest recevied weather packets stored in our database for station/object IW2HNF-3. If no packets are shown the sender has not sent any weather packets the latest 10 day(s).
| Time | Temp. | Humidity | Pressure | Rain* | Wind** | Luminosity | Snow |
|---|---|---|---|---|---|---|---|
| 1777857062 | 15° C | 56% | 1015.7 hPa | 0 mm | - | - | - |
| 1777856439 | 15° C | 55% | 1015.7 hPa | 0 mm | - | - | - |
| 1777855863 | 15.56° C | 55% | 1015.9 hPa | 0 mm | - | - | - |
| 1777855238 | 15.56° C | 53% | 1016 hPa | 0 mm | - | - | - |
| 1777854662 | 15.56° C | 53% | 1016.1 hPa | 0 mm | - | - | - |
| 1777854040 | 16.11° C | 52% | 1016.1 hPa | 0 mm | - | - | - |
| 1777853462 | 16.11° C | 52% | 1016.3 hPa | 0 mm | - | - | - |
| 1777853271 | 15.56° C | 53% | 1016.3 hPa | 0 mm | - | - | - |
| 1777852264 | 16.11° C | 53% | 1016.4 hPa | 0 mm | - | - | - |
| 1777851638 | 15.56° C | 53% | 1016.4 hPa | 0 mm | - | - | - |
| 1777851062 | 15.56° C | 53% | 1016.5 hPa | 0 mm | - | - | - |
| 1777850438 | 15.56° C | 53% | 1016.6 hPa | 0 mm | - | - | - |
| 1777849863 | 16.11° C | 51% | 1016.7 hPa | 0 mm | - | - | - |
| 1777849238 | 16.11° C | 51% | 1016.8 hPa | 0 mm | - | - | - |
| 1777848662 | 16.11° C | 50% | 1016.8 hPa | 0 mm | - | - | - |
| 1777848039 | 16.11° C | 49% | 1016.7 hPa | 0 mm | - | - | - |
| 1777847463 | 16.11° C | 48% | 1016.7 hPa | 0 mm | - | - | - |
| 1777846838 | 16.67° C | 48% | 1016.6 hPa | 0 mm | - | - | - |
| 1777846262 | 16.67° C | 47% | 1016.7 hPa | 0 mm | - | - | - |
| 1777846071 | 16.67° C | 46% | 1016.5 hPa | 0 mm | - | - | - |
| 1777845062 | 16.67° C | 46% | 1016.5 hPa | 0 mm | - | - | - |
| 1777844438 | 16.67° C | 45% | 1016.5 hPa | 0 mm | - | - | - |
| 1777843863 | 17.22° C | 44% | 1016.5 hPa | 0 mm | - | - | - |
| 1777843239 | 17.22° C | 43% | 1016.4 hPa | 0 mm | - | - | - |
| 1777842662 | 17.22° C | 42% | 1016.3 hPa | 0 mm | - | - | - |
* Rain latest hour (hover to see other rain measurements)
** Current wind speed in m/s (hover to see current wind gust speed)